Regional Weather Roundup
Issued by NWS

Home | Current Version | Previous Version | Text Only | Print | Product List | Glossary Off
Versions: 1 2 3 4 5 6 7 8 9 10 11 12 13 14 15 16 17 18 19 20 21 22 23 24 25 26 27 28 29 30 31 32 33 34 35 36 37 38 39 40 41 42 43 44 45 46 47 48 49 50

000
ASUS43 KFSD 310302
RWRSD

WEATHER ROUNDUP FOR SOUTH DAKOTA
NATIONAL WEATHER SERVICE SIOUX FALLS SD
1000 PM CDT WED JUL 30 2014

NOTE: "FAIR" INDICATES FEW OR NO CLOUDS BELOW 12,000 FEET WITH NO
SIGNIFICANT WEATHER AND/OR OBSTRUCTIONS TO VISIBILITY.


SDZ001>005-009-010-012>017-310400-
NORTHWEST AND NORTH CENTRAL SOUTH DAKOTA

CITY           SKY/WX    TMP DP  RH WIND       PRES   REMARKS
BUFFALO          N/A     73  51  46 E7        30.11R
FAITH            N/A     69  55  60 N8        30.13R
MOBRIDGE         N/A     72  59  63 E9        30.07R
$$

SDZ012>016-024>037-041>051-057-063-072>074-310400-
SOUTHWEST AND SOUTH CENTRAL SOUTH DAKOTA

CITY           SKY/WX    TMP DP  RH WIND       PRES   REMARKS
RAPID CTY ARPT PTCLDY    64  51  62 N8        30.16R
PIERRE         MOCLDY    72  56  57 E5        30.05R
CUSTER         PTCLDY    63  45  51 NE3       30.30R
ELLSWORTH AFB  PTCLDY    74  49  41 N7        30.16R
PHILIP         PTCLDY    73  49  42 NW10      30.06S
PINE RIDGE     PTCLDY    64  54  69 E3        30.15S
WINNER         FAIR      75  53  46 SE8       30.08R
$$

SDZ004>011-016>023-039-040-310400-
NORTHEAST SOUTH DAKOTA

CITY           SKY/WX    TMP DP  RH WIND       PRES   REMARKS
ABERDEEN       CLEAR     65  57  75 NE5       30.09R
WATERTOWN      CLEAR     67  55  65 CALM      30.10R
SISSETON         N/A     61  58  90 CALM      30.07R
$$

SDZ017-020-022-023-036>040-048>070-310400-
SOUTHEAST SOUTH DAKOTA

CITY           SKY/WX    TMP DP  RH WIND       PRES   REMARKS
SIOUX FALLS    CLEAR     66  55  67 CALM      30.10S
HURON          CLEAR     69  57  65 E5        30.08R
CHAMBERLAIN    MOCLDY    72  55  55 SE8       30.08R
MITCHELL       CLEAR     68  57  68 S5        30.09S
YANKTON        CLEAR     70  55  60 SW3       30.11R
$$

ABBREVIATIONS USED IN REMARKS
   TC - TEMPERATURE IN CELSIUS
  WCI - WIND CHILL INDEX
   HX - HEAT INDEX
  VSB - VISIBILITY




USA.gov is the U.S. government's official web portal to all federal, state and local government web resources and services.